Regional Weather Roundup
Issued by NWS Upton, NY

Home | Current Version | Previous Version | Text Only | Print | Product List | Glossary On
Versions: 1 2 3 4 5 6 7 8 9 10 11 12 13 14 15 16 17 18 19 20 21 22 23 24 25 26 27 28 29 30 31 32 33 34 35 36 37 38 39 40 41 42 43 44 45 46 47 48 49 50
000
ASUS41 KOKX 281005
RWROKX

REGIONAL WEATHER ROUNDUP
NATIONAL WEATHER SERVICE NEW YORK NY
500 AM EST SUN DEC 28 2014

NOTE: "FAIR" INDICATES FEW OR NO CLOUDS BELOW 12,000 FEET WITH NO
SIGNIFICANT WEATHER AND/OR OBSTRUCTIONS TO VISIBILITY.

NYZ071-072-176-178-NJZ106-104-281100-
NEW YORK CITY METRO AREA


CITY           SKY/WX    TMP DP  RH WIND       PRES   REMARKS
CENTRAL PARK   CLOUDY    49  36  61 VRB6G17   29.92F
LAGUARDIA APRT CLOUDY    47  37  68 SW5       29.89F
KENNEDY INTL   CLOUDY    45  39  79 S7        29.92F
NEWARK/LIBERTY CLOUDY    44  38  79 SW7       29.90F
BRNX BOT. GARD   N/A     46  36  66 NE1       29.91F
TETERBORO      CLOUDY    43  37  79 S9        29.89F
$$

NYZ177-179-078>081-281100-
LONG ISLAND NEW YORK

CITY           SKY/WX    TMP DP  RH WIND       PRES   REMARKS
FARMINGDALE    CLOUDY    45  40  82 SW7       29.91F
ISLIP          CLOUDY    46  41  82 SW10      29.89F
SHIRLEY        MOCLDY    47  43  86 SW9       29.92F
WESTHAMPTON    CLOUDY    48  43  82 SW8       29.92F
MONTAUK POINT    N/A     50  44  80 S12G18    29.93F
$$

NYZ052-065-067-281100-
HUDSON VALLEY

CITY           SKY/WX    TMP DP  RH WIND       PRES   REMARKS
WHITE PLAINS   CLOUDY    46  36  68 VRB5      29.88F
NEWBURGH       NOT AVBL
MONTGOMERY     CLOUDY    47  32  56 SW8       29.88S
POUGHKEEPSIE   CLOUDY    44  36  73 CALM      29.88S
ALBANY         LGT RAIN  43  40  89 CALM      29.87F
$$

NJZ001-105-106-008-010-013-015-019>022-104-281100-
NEW JERSEY

CITY           SKY/WX    TMP DP  RH WIND       PRES   REMARKS
NEWARK/LIBERTY CLOUDY    44  38  79 SW7       29.90F
TETERBORO      CLOUDY    43  37  79 S9        29.89F
CALDWELL       CLOUDY    44  35  70 VRB5      29.91F
MORRISTOWN     CLOUDY    45  37  76 SW5       29.91R
SOMERVILLE     CLOUDY    35  31  85 CALM      29.91S
SUSSEX         CLOUDY    43  33  68 S6        29.89F
ANDOVER        NOT AVBL
TRENTON        CLOUDY    42  36  79 W5        29.92F
MILLVILLE      CLOUDY    46  39  76 SW3       29.95F
ATLANTIC CITY  MOCLDY    46  40  79 S7        29.94F
WRIGHTSTOWN    CLOUDY    43  39  85 SW9       29.91F
TOMS RIVER     MOCLDY    45  39  81 SW8       29.93F
BELMAR         MOCLDY    45  34  65 SW6       29.91F
$$

PAZ047>061-062-071-281100-
EASTERN PENNSYLVANIA

CITY           SKY/WX    TMP DP  RH WIND       PRES   REMARKS
PHILADELPHIA   CLOUDY    42  37  82 W5        29.94F
ALLENTOWN      LGT RAIN  40  35  83 CALM      29.92S
SCRANTON       CLOUDY    47  32  56 SW5       29.90S
$$

CTZ002-004>006-009-010-012-RIZ004-006-007-MAZ004-011-015-281100-
SOUTHERN NEW ENGLAND
 IN CT

CITY           SKY/WX    TMP DP  RH WIND       PRES   REMARKS
BRADLEY INTL   LGT RAIN  45  35  68 S5        29.86F
HARTFORD       CLOUDY    46  36  68 S7        29.87F
DANBURY        CLOUDY    48  33  56 W7        29.88F
WTRBRY/OXFORD  CLOUDY    45  34  65 SW5       29.88F
BRIDGEPORT     CLOUDY    44  41  89 SW5       29.90F
MERIDEN        CLOUDY    43  37  79 S7        29.88F
NEW HAVEN      CLOUDY    48  40  73 SW7       29.90F
CHESTER        PTSUNNY   45  39  81 SW9       29.89F
GROTON         CLOUDY    46  43  89 SW9       29.90F
WILLIMANTIC    CLOUDY    39  34  82 CALM      29.88F

 IN RI

CITY           SKY/WX    TMP DP  RH WIND       PRES   REMARKS
PROVIDENCE     CLOUDY    42  39  89 SE3       29.89F
BLOCK ISLAND   PTCLDY    48  43  81 SW16G23   29.91F
WESTERLY       CLOUDY    48  42  80 SW10      29.92F

 IN MA

CITY           SKY/WX    TMP DP  RH WIND       PRES   REMARKS
BOSTON         CLOUDY    45  34  65 SW12      29.88F
WORCESTER      LGT RAIN  44  31  60 W14       29.85S
WESTFIELD      CLOUDY    40  37  89 NW3       29.86F
PROVINCETOWN   CLOUDY    46  43  87 SW13      29.90F
NANTUCKET      PTCLDY    48  44  86 SW15      29.94F
$$

ANZ330-335-338-340-345-350-353-355-281100-
COASTAL MARINE OBSERVATIONS


STATION/POSITION TIME  SKY/WX   TEMP    WIND        PRES    VSBY  WAVE
                                AIR SEA DIR/SP/G                  HT/PER
                 (UTC)          (F)     (DEG/KT/KT) (MB)    (MI)  (FT/S)
NY HARB ENTRANCE 1000            47 45  220/ 14/ 16 1013.6          3/13
4S FIRE IS       1000               47                N/A           3/14
20S FIRE ISLAND  0900            50 49              1015.0          4/13
23SW MTP         1000                                 N/A           5/ 6
HUDSON CANYON    1000            54 55  230/ 17/ 21 1015.0          4/14
EXECUTION ROCKS  1000            45 42  210/  6/  8   N/A
WESTERN LI SOUND 1000            45     210/  6/  6   N/A           0
CENTRAL LI SOUND 0900            45 44  210/  8/ 10   N/A           2/ 3
EASTERN LI SOUND NOT AVBL
ROBBINS REEF     1000            45                 1011.6
$$


>>>>>>>>>>>>>>>>>>>>>>>>>>>> KEY <<<<<<<<<<<<<<<<<<<<<<<<<<<
>                                                          <
>     SKY/WX - SKY CONDITION/PRESENT WEATHER               <
>     TMP    - TEMPERATURE IN FAHRENHEIT                   <
>     DP     - DEWPOINT IN FAHRENHEIT                      <
>     RH     - RELATIVE HUMIDITY IN PERCENT                <
>     WIND   - DIRECTION AND SPEED IN MPH                  <
>     PRES   - MEAN SEA LEVEL PRESSURE IN INCHES OF HG     <
>     WCI    - WIND CHILL INDEX                            <
>     VSB    - VISIBILITY IN MILES                         <
>     HX     - HEAT INDEX                                  <
>     TC     - TEMPERATURE IN CELSIUS                      <
>     VRB    - VARIABLE WIND DIRECTION                     <
>                                                          <
>>>>>>>>>>>>>>>>>>>>>>>>>>>> KEY <<<<<<<<<<<<<<<<<<<<<<<<<<<




USA.gov is the U.S. government's official web portal to all federal, state and local government web resources and services.